SL-12 R/B(2)

Satellite information

Favourite Embed

Satellite Type and Status

ROCKET BODYIN ORBIT

Key statistics

Satellite SL-12 R/B(2) at a glance.

Uptime

14334

Days in orbit

Revolutions

≈ 2.1

Per day

Orbit

MEO

Medium Earth Orbit

Inclination

64.8

Latest

Satellite identification and parameters

Extended collection of information and parameters for SL-12 R/B(2).

Object identification

Identified? True

Debris? False

Object name: SL-12 R/B(2)

International designator: 1986-071F

Object number (NORAD): 16968

Object ID (CCSDS): 16968

Country: COMMONWEALTH OF INDEPENDENT STATES (CIS)

Current information (Y/N): Y

RCS size: LARGE

Orbital parameters

Period: 675.214 minutes

Inclination: 64.799 deg

SMA: 25494.974 km

Apoapsis: 19184.631 km

Periapsis: 19049.046 km

RAAN: 77.7957 deg

Eccentricy: 0.00265906

Argument of periapsis: 221.6665 deg

Mean anomaly: 137.4359 deg

Mean motion: 2.1326565 rev/day

Mean motion (dot): -0.00000051 rev/day2

B* drag term: 0.0 1/REarth

Two-line elements (TLE)

Creation date: Dec. 14, 2025, 3:07 a.m.

Reference frame: TEME

Reference center: EARTH

Epoch: Dec. 13, 2025, 8:58 a.m. UTC

TLE line 0: 0 SL-12 R/B(2)

TLE line 1: 1 16968U 86071F 25347.37400645 -.00000051 00000-0 00000-0 0 9999

TLE line 2: 2 16968 64.7990 77.7957 0026591 221.6665 137.4359 2.13265650305639

Live tracking on map

Real-time ground track for satellite SL-12 R/B(2).

In-orbit conjunctions

A list of the most updated potential collisions computed for object SL-12 R/B(2).

Target Orbit TCA Probability of collision Miss distance Type
COSMOS 1492 (GLONASS) MEO 2025-08-26 17:04:07 TBA 4781.0 (m) PAYLOAD

Associated space launch

GLONASS navigation satellites

SL-12 R/B(2) was lifted into orbit during the mission ‘Proton | Uragan 14 to 16’, on board a Proton space rocket.

The launch took place on Sept. 16, 1986, 11:38 a.m. from 200/40.

For more information about the launch, click the button.

Launch to space Proton | Uragan 14 to 16
Proton | Uragan 14 to 16

Agency: N/A

Status: Launch Successful

Launch date: Sept. 16, 1986, 11:38 a.m. UTC

Rocket: Proton

Launch pad: 200/40

Location: Baikonur Cosmodrome, Republic of Kazakhstan

...

Latest news about this satellite

There are no fresh news available about this satellite. Check back as we update our databases every day.


Newsletter sign-up

Weekly statistics, charts and insights to help you stay on top of the space industry.